Location: Wildcat Hills Observatory
(41.6350°N, 103.6812°W)
Time: 03:23:28
(UTC-06:00)

Cosmos 1634 Rocket - Visible Passes

Search period start: 31 July 2015 00:00
Search period end: 10 August 2015 00:00
Orbit: 961 x 992 km, 82.9° (Epoch: 28 July)

Date Brightness Start Highest point End Pass type
(mag) Time Alt. Az. Time Alt. Az. Time Alt. Az.
31 Jul 4.0 21:45:20 10° S 21:51:40 88° W 21:58:03 10° N visible
31 Jul 6.6 23:34:55 10° W 23:38:12 14° WNW 23:41:06 10° NW visible
01 Aug 4.9 22:11:14 10° SSW 22:17:22 50° WNW 22:23:30 10° N visible
02 Aug 4.4 20:51:41 10° SSE 20:57:37 45° E 21:03:37 10° NNE visible
02 Aug 5.8 22:37:52 10° SW 22:43:17 28° WNW 22:48:35 10° NNW visible
03 Aug 4.0 21:16:47 10° S 21:23:06 81° E 21:29:28 10° N visible
03 Aug 6.6 23:05:33 10° WSW 23:09:26 16° WNW 23:13:02 10° NNW visible
04 Aug 4.7 21:42:32 10° SSW 21:48:45 57° WNW 21:54:59 10° N visible
05 Aug 5.7 22:08:58 10° SW 22:14:36 32° WNW 22:20:11 10° N visible
06 Aug 4.0 20:48:16 10° S 20:54:32 71° E 21:00:51 10° NNE visible
06 Aug 6.5 22:36:19 10° WSW 22:40:42 18° WNW 22:44:50 10° NNW visible
07 Aug 4.5 21:13:52 10° SSW 21:20:09 66° W 21:26:27 10° N visible
08 Aug 5.5 21:40:07 10° SW 21:45:57 37° WNW 21:51:44 10° N visible
09 Aug 6.4 22:07:12 10° WSW 22:11:59 21° WNW 22:16:34 10° NNW visible
